When you browse on this site, cookies collect data to enhance your experience and personalize the content and advertising you see.
Visit our Privacy Policy to learn more. By continuing to use the site, you agree to this use of cookies and data.

Hourly Weather Shardzha

Today, 10 July, Friday

Time Temperature Precipitation Wind Pressure Humidity
00:00 +36°C° 0 mm 2 mps 746 mmHg 57%
01:00 +36°C° 0 mm 2 mps 746 mmHg 55%
02:00 +36°C° 0 mm 2 mps 745 mmHg 51%
03:00 +36°C° 0 mm 2 mps 745 mmHg 47%
04:00 +34°C° 0 mm 1 mps 745 mmHg 49%
05:00 +36°C° 0 mm 2 mps 746 mmHg 43%
06:00 +38°C° 0 mm 3 mps 746 mmHg 36%
07:00 +40°C° 0 mm 4 mps 747 mmHg 30%
08:00 +42°C° 0 mm 4 mps 747 mmHg 26%
09:00 +44°C° 0 mm 4 mps 747 mmHg 21%
10:00 +47°C° 0 mm 3 mps 747 mmHg 16%
11:00 +49°C° 0 mm 4 mps 747 mmHg 15%
12:00 +49°C° 0 mm 4 mps 747 mmHg 14%
13:00 +50°C° 0 mm 5 mps 746 mmHg 13%
14:00 +49°C° 0 mm 5 mps 746 mmHg 14%
15:00 +49°C° 0 mm 6 mps 745 mmHg 15%
16:00 +48°C° 0 mm 6 mps 745 mmHg 17%
17:00 +46°C° 0 mm 5 mps 745 mmHg 24%
18:00 +42°C° 0 mm 4 mps 745 mmHg 32%
19:00 +39°C° 0 mm 3 mps 746 mmHg 39%
20:00 +38°C° 0 mm 3 mps 746 mmHg 43%
21:00 +36°C° 0 mm 2 mps 746 mmHg 46%
22:00 +34°C° 0 mm 1 mps 746 mmHg 49%
23:00 +34°C° 0 mm 1 mps 746 mmHg 48%

Tomorrow, 11 July, Saturday

Time Temperature Precipitation Wind Pressure Humidity
00:00 +35°C° 0 mm 2 mps 746 mmHg 46%
01:00 +35°C° 0 mm 2 mps 746 mmHg 45%
02:00 +35°C° 0 mm 2 mps 746 mmHg 43%
03:00 +35°C° 0 mm 2 mps 745 mmHg 40%
04:00 +35°C° 0 mm 2 mps 745 mmHg 38%
05:00 +36°C° 0 mm 2 mps 746 mmHg 32%
06:00 +38°C° 0 mm 2 mps 746 mmHg 25%
07:00 +39°C° 0 mm 2 mps 746 mmHg 19%
08:00 +42°C° 0 mm 2 mps 746 mmHg 16%
09:00 +46°C° 0 mm 3 mps 747 mmHg 13%
10:00 +50°C° 0 mm 3 mps 747 mmHg 9%
11:00 +50°C° 0 mm 4 mps 746 mmHg 11%
12:00 +50°C° 0 mm 5 mps 746 mmHg 12%
13:00 +51°C° 0 mm 6 mps 746 mmHg 14%
14:00 +50°C° 0 mm 5 mps 746 mmHg 14%
15:00 +50°C° 0 mm 5 mps 745 mmHg 14%
16:00 +49°C° 0 mm 5 mps 745 mmHg 14%
17:00 +47°C° 0 mm 5 mps 745 mmHg 17%
18:00 +44°C° 0 mm 4 mps 745 mmHg 20%
19:00 +42°C° 0 mm 4 mps 744 mmHg 24%
20:00 +40°C° 0 mm 3 mps 745 mmHg 26%
21:00 +39°C° 0 mm 3 mps 745 mmHg 28%
22:00 +37°C° 0 mm 2 mps 745 mmHg 29%
23:00 +37°C° 0 mm 3 mps 745 mmHg 31%

Day after tomorrow, 12 July, Sunday

Time Temperature Precipitation Wind Pressure Humidity
00:00 +37°C° 0 mm 4 mps 745 mmHg 33%
01:00 +37°C° 0 mm 4 mps 745 mmHg 34%
02:00 +36°C° 0 mm 4 mps 744 mmHg 38%
03:00 +36°C° 0 mm 4 mps 744 mmHg 41%
04:00 +35°C° 0 mm 3 mps 744 mmHg 45%
05:00 +37°C° 0 mm 4 mps 744 mmHg 38%
06:00 +38°C° 0 mm 4 mps 745 mmHg 31%
07:00 +41°C° 0 mm 4 mps 745 mmHg 24%
08:00 +43°C° 0 mm 4 mps 745 mmHg 20%
09:00 +47°C° 0 mm 4 mps 746 mmHg 16%
10:00 +50°C° 0 mm 4 mps 746 mmHg 12%
11:00 +51°C° 0 mm 4 mps 746 mmHg 10%
12:00 +52°C° 0 mm 4 mps 746 mmHg 9%
13:00 +53°C° 0 mm 4 mps 746 mmHg 7%
14:00 +53°C° 0 mm 5 mps 745 mmHg 10%
15:00 +52°C° 0 mm 5 mps 745 mmHg 13%
16:00 +51°C° 0 mm 6 mps 744 mmHg 16%
17:00 +48°C° 0 mm 5 mps 744 mmHg 19%
18:00 +46°C° 0 mm 5 mps 744 mmHg 22%
19:00 +43°C° 0 mm 4 mps 744 mmHg 25%
20:00 +43°C° 0 mm 4 mps 744 mmHg 22%
21:00 +42°C° 0 mm 3 mps 744 mmHg 20%
22:00 +40°C° 0 mm 3 mps 745 mmHg 18%
23:00 +40°C° 0 mm 3 mps 744 mmHg 18%

13 July, Monday

Time Temperature Precipitation Wind Pressure Humidity
00:00 +39°C° 0 mm 3 mps 744 mmHg 18%
01:00 +38°C° 0 mm 3 mps 744 mmHg 19%
02:00 +38°C° 0 mm 4 mps 744 mmHg 23%
03:00 +37°C° 0 mm 4 mps 744 mmHg 27%
04:00 +37°C° 0 mm 4 mps 744 mmHg 32%
05:00 +38°C° 0 mm 4 mps 744 mmHg 27%
06:00 +40°C° 0 mm 4 mps 744 mmHg 23%
07:00 +42°C° 0 mm 4 mps 745 mmHg 18%
08:00 +45°C° 0 mm 5 mps 745 mmHg 18%
09:00 +47°C° 0 mm 5 mps 745 mmHg 17%
10:00 +51°C° 0 mm 6 mps 746 mmHg 17%
11:00 +52°C° 0 mm 5 mps 745 mmHg 16%
12:00 +53°C° 0 mm 5 mps 745 mmHg 14%
13:00 +54°C° 0 mm 5 mps 745 mmHg 13%
14:00 +53°C° 0 mm 5 mps 744 mmHg 16%
15:00 +51°C° 0 mm 6 mps 744 mmHg 19%
16:00 +50°C° 0 mm 7 mps 744 mmHg 22%
17:00 +48°C° 0 mm 6 mps 744 mmHg 20%
18:00 +47°C° 0 mm 5 mps 744 mmHg 19%
19:00 +46°C° 0 mm 3 mps 744 mmHg 18%
20:00 +44°C° 0 mm 3 mps 744 mmHg 23%
21:00 +42°C° 0 mm 3 mps 745 mmHg 28%
22:00 +40°C° 0 mm 3 mps 745 mmHg 33%
23:00 +39°C° 0 mm 3 mps 745 mmHg 32%

14 July, Tuesday

Time Temperature Precipitation Wind Pressure Humidity
00:00 +39°C° 0 mm 2 mps 745 mmHg 31%
01:00 +39°C° 0 mm 2 mps 745 mmHg 29%
02:00 +38°C° 0 mm 3 mps 745 mmHg 32%
03:00 +38°C° 0 mm 4 mps 745 mmHg 35%
04:00 +37°C° 0 mm 4 mps 745 mmHg 37%
05:00 +38°C° 0 mm 4 mps 746 mmHg 36%
06:00 +40°C° 0 mm 4 mps 746 mmHg 35%
07:00 +40°C° 0 mm 4 mps 747 mmHg 33%
08:00 +43°C° 0 mm 3 mps 747 mmHg 27%
09:00 +46°C° 0 mm 3 mps 747 mmHg 20%
10:00 +49°C° 0 mm 2 mps 748 mmHg 14%
11:00 +50°C° 0 mm 3 mps 748 mmHg 13%
12:00 +51°C° 0 mm 4 mps 747 mmHg 13%
13:00 +53°C° 0 mm 5 mps 747 mmHg 13%
14:00 +52°C° 0 mm 5 mps 747 mmHg 15%
15:00 +50°C° 0 mm 5 mps 746 mmHg 17%
16:00 +49°C° 0 mm 6 mps 746 mmHg 19%
17:00 +48°C° 0 mm 5 mps 746 mmHg 22%
18:00 +45°C° 0 mm 4 mps 746 mmHg 26%
19:00 +43°C° 0 mm 3 mps 746 mmHg 29%
20:00 +42°C° 0 mm 3 mps 746 mmHg 32%
21:00 +40°C° 0 mm 3 mps 746 mmHg 35%
22:00 +39°C° 0 mm 3 mps 747 mmHg 38%
23:00 +39°C° 0 mm 3 mps 746 mmHg 41%

15 July, Wednesday

Time Temperature Precipitation Wind Pressure Humidity
00:00 +38°C° 0 mm 3 mps 746 mmHg 45%
01:00 +38°C° 0 mm 2 mps 746 mmHg 49%
02:00 +37°C° 0 mm 3 mps 746 mmHg 48%
03:00 +37°C° 0 mm 3 mps 746 mmHg 48%
04:00 +37°C° 0 mm 3 mps 746 mmHg 48%
05:00 +37°C° 0 mm 3 mps 747 mmHg 44%
06:00 +38°C° 0 mm 3 mps 747 mmHg 40%
07:00 +39°C° 0 mm 3 mps 748 mmHg 36%
08:00 +42°C° 0 mm 3 mps 748 mmHg 31%
09:00 +44°C° 0 mm 3 mps 748 mmHg 27%
10:00 +47°C° 0 mm 3 mps 748 mmHg 22%
11:00 +48°C° 0 mm 3 mps 748 mmHg 20%
12:00 +50°C° 0 mm 4 mps 747 mmHg 17%
13:00 +51°C° 0 mm 4 mps 747 mmHg 15%
14:00 +50°C° 0 mm 5 mps 747 mmHg 19%
15:00 +49°C° 0 mm 6 mps 746 mmHg 24%
16:00 +47°C° 0 mm 6 mps 746 mmHg 29%
17:00 +46°C° 0 mm 5 mps 746 mmHg 31%
18:00 +43°C° 0 mm 4 mps 746 mmHg 34%
19:00 +42°C° 0 mm 4 mps 746 mmHg 37%
20:00 +40°C° 0 mm 3 mps 746 mmHg 37%
21:00 +39°C° 0 mm 2 mps 746 mmHg 38%
22:00 +38°C° 0 mm 2 mps 746 mmHg 38%
23:00 +38°C° 0 mm 2 mps 746 mmHg 38%
Show more